GPS Operational
NORAD ID: 22877
Int'l Code: 1993-068A
Perigee: 19,922.2 km
Apogee: 20,459.1 km
Inclination: 53.7 °
Period: 718.0 minutes
Semi major axis: 26561 km
Launch date: October 26, 1993
Source: United States (US)
PRN: 4
Two Line Element Set (TLE):
1 22877U 93068A 13137.22748752 .00000071 00000-0 00000+0 0 3636
2 22877 053.7338 159.9306 0101061 055.2008 048.2552 02.00548973143304
Source: AFSPC
NASA's NSSDC Master Catalog entry for NAVSTAR 35 (USA 96)